STARLINK-35240

Last updated on Mon Oct 20 2025 00:02:05 GMT+0000 (Coordinated Universal Time)

1 65655U 25211D 25292.25002315 -.02385374 00000+0 -65649-1 0 9990 2 65655 97.6036 334.4024 0001682 83.3725 269.4844 15.40733890 5771
UTC large
Height (km)
Speed (km/s)
/
Latitude / Longitude
Inclination (degrees)
Orbital Period (minutes)
Azimuth
Elevation
Range (km)
Doppler Factor

Next 0 passes for location: London (51.5072 / 0.1276)

Sorry there are no passes over London.